Terminal Aerodrome Forecast
Issued by NWS

Home | Current Version | Previous Version | Text Only | Print | Product List | Glossary On
Versions: 1 2 3 4 5 6 7 8 9 10 11 12 13 14 15 16 17 18 19 20 21 22 23 24 25 26 27 28 29 30 31 32 33 34
000
FTUS45 KBOU 271937 AAA
TAFBJC
TAF AMD
KBJC 271937Z 2720/2818 30012G19KT P6SM VCSH FEW080 BKN100
     FM272100 33011KT P6SM VCSH SCT080 BKN100
     FM280400 30005KT P6SM FEW100 SCT150
     FM281400 VRB05KT P6SM FEW220=

USA.gov is the U.S. government's official web portal to all federal, state and local government web resources and services.